SL-3 R/B, 8027

Orbit data source: Space-Track

SL-3 R/B, 8027 is space debris in LEO originally from a launch on Fri, 11 Jul 1975 UTC launched from the Plesetsk Missile And Space Complex (PKMTR). Debris objects in space refer to the collection of defunct objects orbiting the Earth. Examples of debris include non-operational satellites, rocket bodies, and fragments generated from explosions, collisions, or faulty payload assembly.

Loading next visibility...
Identifier
8027, 1975-064B
Orbit
LEO
Country
Flag of CISCIS
Related business
Manufacturer
Progress
Mission
Spacecraft
Bus & Motor
BLOK-E, Unknown motor
Mass
1,440 kg wet, 1,440 kg dry
Launch date (UTC)
1975-07-11 (51 years ago)
Launch vehicle
Unknown
Launch site
Plesetsk Missile And Space Complex (PKMTR)
Object type
Payload
Rocket body
Debris
Shape & HBR
Unknown
Radar Cross Section
Large (>1 m²)

Expand to show TLE details & history
Last TLE update: 2 days ago

TLE from 2 days ago
0 SL-3 R/B
1  8027U 75064B   26171.38557123  .00000046  00000-0  19676-4 0  9993
2  8027  81.2940 125.7636 0057002   1.3250 358.8060 14.07767034615021
Epoch: 2026-06-20T09:15Z
TLE epoch observation values (Epoch: 2026-06-20T09:15:13.354Z)
Latitude
0.00002°
Longitude
78.35701°
Altitude
828.623 km
Speed
7.46 km/s
True Right ascension
08h 23m 03s
True Declination
0° 00' 00"
Sunlit
Object was in daylight at epoch
Visualization orbit readout
Latitude
Unknown
Longitude
Unknown
Altitude
Unknown
Speed
Unknown
Apparent Right ascension
Unknown
Apparent Declination
Unknown
Sunlit
N/A
Visualization observer readout
Local Sidereal Time
23:07:50
Azimuth
Unknown
Elevation
Unknown
Doppler factor
Unknown
Orbital elements
Apogee altitude
905.48 km
Perigee altitude
822.915 km
Semi-major axis
7,242.335 km
Eccentricity
0.0057
Inclination
81.294°
RAAN
125.7636°
Arg. of periapsis
1.325°
True anomaly
358.79229°
Mean anomaly
358.806°
Eccentric anomaly
358.79916°
Mean motion
3.52148 °/min
Orbital period
102.23 mins
BSTAR
0.000019676
Loading maneuver chart data...
Computing Atmospheric mass density...
Loading historical data...
Loading historical data...
Loading historical data...
Loading historical data...
Loading historical data...
Loading historical data...
Loading historical data...
Other satellites on launch #64 in the year 1975 (1975-07-11 UTC)

Documentation

Showing up to 5 results
|